RYR1KY LIME-LGTS

Flight info

Callsign RYR1KY
Flight time 1h 42m
Altitude 37000
Route LOGDI DCT LURUT DCT TODNO DCT BAKEP DCT IBENI DCT MAVAR DCT PEP DCT TALAS N130 ALIKO
Aircraft B738/M-SDE2E3FGHIRWXY/LB1

Departure

Time 2026-04-28 14:47
Airport Il Caravaggio International Airport (LIME)

Arrival

Time 2026-04-28 16:30
Airport Thessaloniki Macedonia International Airport (LGTS)
Time Latitude Longitude Altitude Speed Heading
2026-04-28 14:24 45.66636 9.70056 834 ft 0 kts 195°
2026-04-28 14:35 45.66637 9.70056 834 ft 1 kts 195°
2026-04-28 14:36 45.66661 9.70065 807 ft 4 kts 195°
2026-04-28 14:36 45.66687 9.70075 786 ft 3 kts 195°
2026-04-28 14:36 45.66709 9.70081 786 ft 4 kts 171°
2026-04-28 14:36 45.66728 9.70066 786 ft 4 kts 116°
2026-04-28 14:37 45.66736 9.70032 786 ft 2 kts 105°
2026-04-28 14:37 45.66737 9.70030 786 ft 0 kts 105°
2026-04-28 14:39 45.66734 9.70042 786 ft 4 kts 105°
2026-04-28 14:39 45.66726 9.70088 786 ft 8 kts 105°
2026-04-28 14:40 45.66709 9.70173 786 ft 10 kts 105°
2026-04-28 14:40 45.66703 9.70206 786 ft 10 kts 104°
2026-04-28 14:40 45.66674 9.70366 786 ft 10 kts 105°
2026-04-28 14:40 45.66657 9.70461 786 ft 10 kts 105°
2026-04-28 14:41 45.66638 9.70564 786 ft 12 kts 104°
2026-04-28 14:41 45.66614 9.70695 786 ft 15 kts 105°
2026-04-28 14:41 45.66585 9.70846 786 ft 16 kts 105°
2026-04-28 14:41 45.66559 9.70994 786 ft 15 kts 104°
2026-04-28 14:42 45.66527 9.71137 786 ft 16 kts 111°
2026-04-28 14:42 45.66489 9.71287 786 ft 16 kts 105°
2026-04-28 14:42 45.66461 9.71435 786 ft 15 kts 105°
2026-04-28 14:42 45.66442 9.71532 786 ft 15 kts 104°
2026-04-28 14:43 45.66448 9.71672 786 ft 14 kts 75°
2026-04-28 14:43 45.66472 9.71829 786 ft 17 kts 90°
2026-04-28 14:43 45.66448 9.71994 786 ft 17 kts 105°
2026-04-28 14:43 45.66419 9.72151 786 ft 16 kts 104°
2026-04-28 14:44 45.66392 9.72303 786 ft 15 kts 104°
2026-04-28 14:44 45.66378 9.72386 786 ft 2 kts 104°
2026-04-28 14:44 45.66375 9.72419 786 ft 7 kts 91°
2026-04-28 14:44 45.66394 9.72489 786 ft 8 kts 49°
2026-04-28 14:45 45.66442 9.72509 786 ft 8 kts 334°
2026-04-28 14:45 45.66459 9.72439 786 ft 7 kts 284°
2026-04-28 14:45 45.66460 9.72434 786 ft 0 kts 284°
2026-04-28 14:46 45.66466 9.72400 786 ft 15 kts 284°
2026-04-28 14:46 45.66561 9.71887 786 ft 91 kts 285°
2026-04-28 14:46 45.66780 9.70714 786 ft 154 kts 284°
2026-04-28 14:47 45.67097 9.69013 1005 ft 191 kts 285°
2026-04-28 14:47 45.67375 9.67066 1635 ft 209 kts 270°
2026-04-28 14:47 45.66891 9.65146 2358 ft 209 kts 229°
2026-04-28 14:47 45.65741 9.63959 3217 ft 201 kts 211°
2026-04-28 14:48 45.64639 9.62787 4160 ft 195 kts 219°
2026-04-28 14:48 45.63609 9.61546 5059 ft 193 kts 221°
2026-04-28 14:48 45.62585 9.60188 5490 ft 206 kts 223°
2026-04-28 14:48 45.61561 9.58749 5703 ft 210 kts 224°
2026-04-28 14:49 45.60451 9.57150 5753 ft 244 kts 225°
2026-04-28 14:49 45.59196 9.55342 6163 ft 264 kts 225°
2026-04-28 14:49 45.57891 9.53468 7042 ft 263 kts 223°
2026-04-28 14:49 45.56403 9.52107 8248 ft 249 kts 198°
2026-04-28 14:50 45.54718 9.51790 9289 ft 247 kts 176°
2026-04-28 14:50 45.53062 9.52326 10066 ft 251 kts 162°
2026-04-28 14:50 45.51419 9.53272 10693 ft 261 kts 159°
2026-04-28 14:50 45.49673 9.54361 10910 ft 288 kts 158°
2026-04-28 14:51 45.47758 9.55559 11117 ft 313 kts 158°
2026-04-28 14:51 45.45700 9.56838 11505 ft 329 kts 158°
2026-04-28 14:51 45.43579 9.58137 12182 ft 335 kts 159°
2026-04-28 14:51 45.41422 9.59443 12964 ft 339 kts 159°
2026-04-28 14:52 45.39238 9.60757 13716 ft 343 kts 159°
2026-04-28 14:52 45.37026 9.62086 14366 ft 348 kts 159°
2026-04-28 14:52 45.34848 9.63657 15030 ft 354 kts 152°
2026-04-28 14:52 45.32731 9.65501 15672 ft 359 kts 150°
2026-04-28 14:53 45.30616 9.67442 16307 ft 365 kts 150°
2026-04-28 14:53 45.28479 9.69415 16938 ft 369 kts 150°
2026-04-28 14:53 45.26305 9.71404 17569 ft 374 kts 150°
2026-04-28 14:53 45.24099 9.73398 18193 ft 378 kts 151°
2026-04-28 14:54 45.21851 9.75408 18663 ft 385 kts 151°
2026-04-28 14:54 45.19558 9.77443 19158 ft 391 kts 151°
2026-04-28 14:54 45.17239 9.79494 19746 ft 393 kts 151°
2026-04-28 14:54 45.14912 9.81546 20343 ft 395 kts 151°
2026-04-28 14:55 45.12596 9.83586 20902 ft 398 kts 152°
2026-04-28 14:55 45.10232 9.85664 21459 ft 401 kts 152°
2026-04-28 14:55 45.07856 9.87750 22011 ft 404 kts 152°
2026-04-28 14:55 45.05450 9.89860 22546 ft 407 kts 152°
2026-04-28 14:56 45.03030 9.91980 23066 ft 411 kts 152°
2026-04-28 14:56 45.00592 9.94114 23581 ft 414 kts 152°
2026-04-28 14:56 44.98137 9.96261 24015 ft 417 kts 152°
2026-04-28 14:56 44.95662 9.98424 24439 ft 420 kts 152°
2026-04-28 14:57 44.93171 10.00599 24849 ft 423 kts 152°
2026-04-28 14:57 44.91513 10.02045 25124 ft 424 kts 152°
2026-04-28 14:57 44.88138 10.04986 25681 ft 428 kts 152°
2026-04-28 14:57 44.85595 10.07199 26079 ft 431 kts 152°
2026-04-28 14:58 44.83035 10.09425 26462 ft 434 kts 151°
2026-04-28 14:58 44.80458 10.11664 26852 ft 436 kts 151°
2026-04-28 14:58 44.77867 10.13912 27233 ft 439 kts 151°
2026-04-28 14:58 44.75262 10.16172 27598 ft 442 kts 150°
2026-04-28 14:59 44.72837 10.18869 27922 ft 450 kts 136°
2026-04-28 14:59 44.70883 10.22337 28304 ft 455 kts 123°
2026-04-28 14:59 44.69518 10.26364 28679 ft 459 kts 110°
2026-04-28 14:59 44.68505 10.30621 29045 ft 461 kts 108°
2026-04-28 15:00 44.67535 10.34930 29365 ft 464 kts 108°
2026-04-28 15:00 44.66562 10.39268 29686 ft 466 kts 108°
2026-04-28 15:00 44.65580 10.43568 30012 ft 468 kts 108°
2026-04-28 15:00 44.64563 10.47931 30328 ft 470 kts 109°
2026-04-28 15:01 44.63528 10.52299 30599 ft 473 kts 109°
2026-04-28 15:01 44.62475 10.56695 30841 ft 475 kts 109°
2026-04-28 15:01 44.61416 10.61100 31102 ft 477 kts 109°
2026-04-28 15:01 44.60349 10.65522 31361 ft 479 kts 109°
2026-04-28 15:02 44.59279 10.69955 31646 ft 481 kts 109°
2026-04-28 15:02 44.58205 10.74402 31991 ft 480 kts 109°
2026-04-28 15:02 44.57134 10.78828 32337 ft 479 kts 109°
2026-04-28 15:02 44.56075 10.83198 32625 ft 479 kts 109°
2026-04-28 15:03 44.55000 10.87630 32895 ft 480 kts 109°
2026-04-28 15:03 44.53924 10.92054 33179 ft 480 kts 109°
2026-04-28 15:03 44.52996 10.96551 33447 ft 480 kts 101°
2026-04-28 15:03 44.52518 11.01173 33733 ft 480 kts 93°
2026-04-28 15:04 44.52504 11.05836 34003 ft 479 kts 90°
2026-04-28 15:04 44.52128 11.10468 34171 ft 481 kts 104°
2026-04-28 15:04 44.51148 11.14942 34420 ft 480 kts 109°
2026-04-28 15:04 44.50059 11.19358 34673 ft 479 kts 109°
2026-04-28 15:05 44.48961 11.23766 34927 ft 479 kts 109°
2026-04-28 15:05 44.47892 11.28176 35181 ft 479 kts 108°
2026-04-28 15:05 44.46852 11.32603 35437 ft 478 kts 108°
2026-04-28 15:05 44.45838 11.37035 35690 ft 477 kts 107°
2026-04-28 15:06 44.44840 11.41469 35929 ft 477 kts 107°
2026-04-28 15:06 44.43850 11.45894 36188 ft 476 kts 107°
2026-04-28 15:06 44.42864 11.50309 36457 ft 475 kts 107°
2026-04-28 15:06 44.41887 11.54668 36698 ft 474 kts 107°
2026-04-28 15:07 44.40885 11.59125 36929 ft 474 kts 107°
2026-04-28 15:07 44.39891 11.63532 37061 ft 476 kts 107°
2026-04-28 15:07 44.38903 11.67899 37054 ft 478 kts 107°
2026-04-28 15:08 44.36891 11.76757 37052 ft 477 kts 107°
2026-04-28 15:08 44.34886 11.85546 37034 ft 471 kts 107°
2026-04-28 15:09 44.32893 11.94249 37029 ft 469 kts 107°
2026-04-28 15:09 44.30899 12.02920 37029 ft 468 kts 107°
2026-04-28 15:10 44.28903 12.11571 37021 ft 468 kts 107°
2026-04-28 15:10 44.26901 12.20208 37053 ft 468 kts 107°
2026-04-28 15:11 44.24903 12.28801 37052 ft 470 kts 108°
2026-04-28 15:11 44.22876 12.37477 37053 ft 471 kts 108°
2026-04-28 15:12 44.20837 12.46178 37021 ft 473 kts 108°
2026-04-28 15:12 44.18786 12.54898 37029 ft 474 kts 108°
2026-04-28 15:13 44.17082 12.63769 37030 ft 473 kts 98°
2026-04-28 15:13 44.16046 12.72832 37028 ft 474 kts 97°
2026-04-28 15:14 44.15035 12.81912 37024 ft 475 kts 98°
2026-04-28 15:14 44.13978 12.90989 37029 ft 475 kts 98°
2026-04-28 15:15 44.12891 13.00055 37029 ft 474 kts 98°
2026-04-28 15:15 44.11802 13.09048 37029 ft 474 kts 98°
2026-04-28 15:16 44.10699 13.18098 37029 ft 473 kts 98°
2026-04-28 15:16 44.09595 13.27104 37030 ft 472 kts 98°
2026-04-28 15:17 44.08486 13.36096 37031 ft 471 kts 98°
2026-04-28 15:17 44.07373 13.45066 37030 ft 470 kts 98°
2026-04-28 15:18 44.06260 13.53966 37034 ft 470 kts 99°
2026-04-28 15:18 44.05136 13.62905 37030 ft 469 kts 99°
2026-04-28 15:19 44.04005 13.71837 37032 ft 469 kts 99°
2026-04-28 15:19 44.02867 13.80769 37040 ft 469 kts 99°
2026-04-28 15:20 44.01716 13.89714 37035 ft 470 kts 100°
2026-04-28 15:20 43.99642 13.98314 37049 ft 471 kts 113°
2026-04-28 15:21 43.96960 14.06632 37034 ft 472 kts 114°
2026-04-28 15:21 43.94262 14.14941 37034 ft 473 kts 114°
2026-04-28 15:22 43.91594 14.23274 37039 ft 473 kts 114°
2026-04-28 15:22 43.88934 14.31641 37040 ft 474 kts 114°
2026-04-28 15:23 43.86289 14.39954 37042 ft 474 kts 114°
2026-04-28 15:23 43.83618 14.48317 37041 ft 475 kts 114°
2026-04-28 15:24 43.80939 14.56675 37043 ft 475 kts 114°
2026-04-28 15:24 43.78254 14.65023 37042 ft 475 kts 114°
2026-04-28 15:25 43.75562 14.73365 37043 ft 475 kts 114°
2026-04-28 15:25 43.72865 14.81697 37046 ft 474 kts 114°
2026-04-28 15:26 43.70167 14.90006 37043 ft 474 kts 114°
2026-04-28 15:26 43.67463 14.98310 37042 ft 474 kts 114°
2026-04-28 15:27 43.64755 15.06597 37042 ft 473 kts 114°
2026-04-28 15:27 43.62042 15.14876 37038 ft 473 kts 114°
2026-04-28 15:28 43.59780 15.21757 37042 ft 473 kts 114°
2026-04-28 15:28 43.57057 15.30017 37038 ft 473 kts 114°
2026-04-28 15:29 43.53884 15.39612 37042 ft 473 kts 114°
2026-04-28 15:29 43.51147 15.47861 37042 ft 474 kts 114°
2026-04-28 15:30 43.48846 15.54778 37044 ft 474 kts 114°
2026-04-28 15:30 43.46112 15.62969 37043 ft 474 kts 114°
2026-04-28 15:31 43.43351 15.71221 37046 ft 475 kts 114°
2026-04-28 15:31 43.40581 15.79471 37045 ft 475 kts 114°
2026-04-28 15:32 43.37844 15.87597 37050 ft 475 kts 114°
2026-04-28 15:32 43.35061 15.95836 37045 ft 475 kts 115°
2026-04-28 15:33 43.32271 16.04073 37049 ft 475 kts 115°
2026-04-28 15:33 43.29476 16.12298 37053 ft 475 kts 115°
2026-04-28 15:34 43.26673 16.20520 37056 ft 475 kts 115°
2026-04-28 15:34 43.23862 16.28742 37051 ft 475 kts 115°
2026-04-28 15:35 43.21046 16.36953 37054 ft 475 kts 115°
2026-04-28 15:35 43.16831 16.49200 37058 ft 476 kts 115°
2026-04-28 15:36 43.14000 16.57394 37054 ft 476 kts 115°
2026-04-28 15:36 43.11166 16.65572 37060 ft 476 kts 115°
2026-04-28 15:37 43.08321 16.73758 37062 ft 476 kts 115°
2026-04-28 15:37 43.05475 16.81922 37053 ft 475 kts 115°
2026-04-28 15:38 43.02622 16.90081 37052 ft 475 kts 115°
2026-04-28 15:38 42.99767 16.98225 37059 ft 475 kts 115°
2026-04-28 15:39 42.96908 17.06353 37059 ft 475 kts 115°
2026-04-28 15:39 42.94041 17.14479 37047 ft 475 kts 115°
2026-04-28 15:40 42.91186 17.22552 37054 ft 475 kts 115°
2026-04-28 15:40 42.88308 17.30663 37055 ft 475 kts 116°
2026-04-28 15:41 42.85425 17.38765 37055 ft 475 kts 116°
2026-04-28 15:41 42.82535 17.46862 37058 ft 475 kts 116°
2026-04-28 15:42 42.79643 17.54943 37061 ft 475 kts 116°
2026-04-28 15:42 42.76742 17.63023 37057 ft 475 kts 116°
2026-04-28 15:43 42.73834 17.71103 37056 ft 475 kts 116°
2026-04-28 15:43 42.70923 17.79166 37056 ft 475 kts 116°
2026-04-28 15:44 42.68003 17.87229 37061 ft 475 kts 116°
2026-04-28 15:44 42.65082 17.95274 37066 ft 475 kts 116°
2026-04-28 15:45 42.62173 18.03263 37072 ft 475 kts 116°
2026-04-28 15:45 42.59237 18.11302 37075 ft 475 kts 116°
2026-04-28 15:46 42.56296 18.19332 37077 ft 475 kts 116°
2026-04-28 15:46 42.53352 18.27348 37076 ft 475 kts 116°
2026-04-28 15:47 42.50398 18.35369 37080 ft 475 kts 116°
2026-04-28 15:47 42.47437 18.43383 37062 ft 476 kts 116°
2026-04-28 15:48 42.45972 18.47342 36815 ft 462 kts 117°
2026-04-28 15:48 42.44555 18.51166 36860 ft 447 kts 117°
2026-04-28 15:48 42.41796 18.58594 36969 ft 441 kts 117°
2026-04-28 15:49 42.39013 18.66068 37006 ft 449 kts 117°
2026-04-28 15:49 42.36183 18.73646 37003 ft 453 kts 117°
2026-04-28 15:50 42.33328 18.81271 37008 ft 455 kts 117°
2026-04-28 15:50 42.30462 18.88908 37002 ft 456 kts 117°
2026-04-28 15:51 42.27638 18.96412 36990 ft 455 kts 117°
2026-04-28 15:51 42.24795 19.03947 36998 ft 453 kts 117°
2026-04-28 15:52 42.21937 19.11500 36997 ft 450 kts 117°
2026-04-28 15:52 42.19089 19.19008 36996 ft 448 kts 117°
2026-04-28 15:53 42.16252 19.26468 36998 ft 446 kts 117°
2026-04-28 15:53 42.13419 19.33896 37001 ft 444 kts 117°
2026-04-28 15:54 42.10608 19.41249 37001 ft 443 kts 117°
2026-04-28 15:54 42.07779 19.48630 37003 ft 444 kts 117°
2026-04-28 15:55 42.04942 19.56012 37003 ft 444 kts 117°
2026-04-28 15:55 42.02091 19.63413 37003 ft 446 kts 117°
2026-04-28 15:56 41.99225 19.70834 37005 ft 447 kts 118°
2026-04-28 15:56 41.96348 19.78264 37004 ft 449 kts 118°
2026-04-28 15:57 41.93457 19.85711 37003 ft 450 kts 118°
2026-04-28 15:57 41.90572 19.93122 37002 ft 451 kts 118°
2026-04-28 15:58 41.87658 20.00591 37001 ft 452 kts 118°
2026-04-28 15:58 41.84739 20.08051 37000 ft 451 kts 118°
2026-04-28 15:59 41.82316 20.14230 36989 ft 443 kts 118°
2026-04-28 15:59 41.78996 20.22677 36992 ft 439 kts 118°
2026-04-28 16:00 41.77564 20.26312 36680 ft 443 kts 118°
2026-04-28 16:00 41.76128 20.29952 36388 ft 438 kts 118°
2026-04-28 16:00 41.74713 20.33537 35981 ft 434 kts 118°
2026-04-28 16:00 41.73309 20.37089 35594 ft 430 kts 118°
2026-04-28 16:01 41.71912 20.40617 35190 ft 427 kts 118°
2026-04-28 16:01 41.70528 20.44111 34790 ft 424 kts 118°
2026-04-28 16:01 41.69152 20.47582 34392 ft 421 kts 118°
2026-04-28 16:01 41.67781 20.51033 33994 ft 418 kts 118°
2026-04-28 16:02 41.66429 20.54465 33596 ft 416 kts 117°
2026-04-28 16:02 41.65155 20.57927 33205 ft 413 kts 116°
2026-04-28 16:02 41.63932 20.61387 32819 ft 410 kts 115°
2026-04-28 16:02 41.62727 20.64833 32432 ft 408 kts 115°
2026-04-28 16:03 41.61526 20.68257 32043 ft 405 kts 115°
2026-04-28 16:03 41.60328 20.71652 31657 ft 403 kts 116°
2026-04-28 16:03 41.59132 20.75018 31281 ft 400 kts 116°
2026-04-28 16:03 41.57934 20.78373 30906 ft 398 kts 116°
2026-04-28 16:04 41.56743 20.81695 30539 ft 396 kts 116°
2026-04-28 16:04 41.55557 20.84999 30162 ft 393 kts 116°
2026-04-28 16:04 41.54375 20.88285 29792 ft 391 kts 116°
2026-04-28 16:04 41.53216 20.91500 29421 ft 388 kts 116°
2026-04-28 16:05 41.52033 20.94782 29029 ft 385 kts 116°
2026-04-28 16:05 41.50875 20.97990 28654 ft 383 kts 116°
2026-04-28 16:05 41.49737 21.01140 28285 ft 381 kts 116°
2026-04-28 16:05 41.48591 21.04309 27897 ft 378 kts 116°
2026-04-28 16:06 41.47448 21.07465 27522 ft 376 kts 116°
2026-04-28 16:06 41.46315 21.10591 27149 ft 374 kts 116°
2026-04-28 16:06 41.45186 21.13701 26776 ft 371 kts 116°
2026-04-28 16:06 41.44064 21.16791 26399 ft 369 kts 116°
2026-04-28 16:07 41.42948 21.19858 26030 ft 367 kts 116°
2026-04-28 16:07 41.41838 21.22909 25668 ft 365 kts 116°
2026-04-28 16:07 41.39634 21.28952 24939 ft 361 kts 116°
2026-04-28 16:08 41.38540 21.31949 24568 ft 359 kts 116°
2026-04-28 16:08 41.37453 21.34926 24210 ft 356 kts 116°
2026-04-28 16:08 41.36370 21.37887 23854 ft 354 kts 116°
2026-04-28 16:09 41.34216 21.43757 23141 ft 350 kts 117°
2026-04-28 16:09 41.32975 21.46529 22773 ft 348 kts 126°
2026-04-28 16:09 41.31569 21.49092 22433 ft 346 kts 127°
2026-04-28 16:10 41.28696 21.54181 21728 ft 342 kts 127°
2026-04-28 16:10 41.27270 21.56711 21381 ft 340 kts 127°
2026-04-28 16:10 41.24459 21.61731 20696 ft 337 kts 127°
2026-04-28 16:11 41.21685 21.66703 20009 ft 333 kts 127°
2026-04-28 16:11 41.18939 21.71624 19330 ft 330 kts 127°
2026-04-28 16:12 41.16223 21.76485 18660 ft 326 kts 127°
2026-04-28 16:12 41.15331 21.78082 18441 ft 325 kts 127°
2026-04-28 16:13 41.12197 21.83682 17671 ft 321 kts 127°
2026-04-28 16:13 41.10870 21.86050 17349 ft 320 kts 127°
2026-04-28 16:13 41.08227 21.90756 16692 ft 316 kts 127°
2026-04-28 16:14 41.06135 21.95843 16038 ft 314 kts 114°
2026-04-28 16:14 41.04385 22.01107 15391 ft 311 kts 114°
2026-04-28 16:15 41.02931 22.05446 14854 ft 308 kts 114°
2026-04-28 16:15 41.02061 22.08011 14465 ft 303 kts 115°
2026-04-28 16:15 41.01192 22.10556 13935 ft 305 kts 115°
2026-04-28 16:16 40.99440 22.15657 13343 ft 301 kts 115°
2026-04-28 16:16 40.98574 22.18166 13033 ft 299 kts 115°
2026-04-28 16:17 40.96859 22.23124 12420 ft 297 kts 115°
2026-04-28 16:17 40.95986 22.25640 12112 ft 296 kts 115°
2026-04-28 16:17 40.95140 22.28078 11804 ft 294 kts 115°
2026-04-28 16:17 40.94288 22.30533 11501 ft 293 kts 115°
2026-04-28 16:18 40.93437 22.32978 11200 ft 292 kts 115°
2026-04-28 16:18 40.92591 22.35411 10902 ft 290 kts 115°
2026-04-28 16:18 40.91751 22.37823 10636 ft 288 kts 115°
2026-04-28 16:18 40.90916 22.40218 10390 ft 284 kts 115°
2026-04-28 16:19 40.90093 22.42575 10148 ft 281 kts 115°
2026-04-28 16:19 40.89276 22.44917 9855 ft 280 kts 115°
2026-04-28 16:19 40.88461 22.47248 9561 ft 279 kts 115°
2026-04-28 16:19 40.87650 22.49568 9273 ft 278 kts 115°
2026-04-28 16:20 40.86841 22.51878 8986 ft 277 kts 115°
2026-04-28 16:20 40.86036 22.54174 8702 ft 275 kts 115°
2026-04-28 16:20 40.85231 22.56472 8415 ft 274 kts 115°
2026-04-28 16:20 40.84430 22.58754 8130 ft 273 kts 115°
2026-04-28 16:21 40.83632 22.61028 7844 ft 272 kts 115°
2026-04-28 16:21 40.82838 22.63285 7565 ft 271 kts 115°
2026-04-28 16:21 40.82056 22.65510 7287 ft 270 kts 115°
2026-04-28 16:21 40.81266 22.67754 7010 ft 269 kts 115°
2026-04-28 16:22 40.80481 22.69983 6722 ft 268 kts 115°
2026-04-28 16:22 40.79695 22.72212 6439 ft 267 kts 115°
2026-04-28 16:22 40.78908 22.74446 6048 ft 270 kts 115°
2026-04-28 16:22 40.78097 22.76742 5449 ft 282 kts 115°
2026-04-28 16:23 40.77271 22.79080 5181 ft 279 kts 115°
2026-04-28 16:23 40.76458 22.81379 4977 ft 273 kts 115°
2026-04-28 16:23 40.75674 22.83617 4780 ft 263 kts 112°
2026-04-28 16:23 40.75457 22.85943 4568 ft 255 kts 78°
2026-04-28 16:24 40.75996 22.88138 4450 ft 249 kts 70°
2026-04-28 16:24 40.76310 22.90333 4255 ft 242 kts 100°
2026-04-28 16:24 40.75568 22.92189 4231 ft 225 kts 142°
2026-04-28 16:24 40.74173 22.92831 4220 ft 214 kts 186°
2026-04-28 16:25 40.72746 22.92265 4069 ft 219 kts 199°
2026-04-28 16:25 40.71255 22.91874 3789 ft 217 kts 184°
2026-04-28 16:25 40.69763 22.91913 3461 ft 211 kts 175°
2026-04-28 16:25 40.68381 22.92160 3386 ft 191 kts 171°
2026-04-28 16:26 40.67143 22.92469 3296 ft 182 kts 169°
2026-04-28 16:26 40.65860 22.92822 2849 ft 191 kts 169°
2026-04-28 16:26 40.64556 22.93186 2399 ft 192 kts 168°
2026-04-28 16:26 40.63265 22.93539 2031 ft 181 kts 169°
2026-04-28 16:27 40.62108 22.93867 1861 ft 163 kts 168°
2026-04-28 16:27 40.61013 22.94210 1642 ft 161 kts 167°
2026-04-28 16:27 40.58901 22.94885 1223 ft 153 kts 167°
2026-04-28 16:28 40.57869 22.95214 1029 ft 154 kts 167°
2026-04-28 16:28 40.56829 22.95547 831 ft 153 kts 167°
2026-04-28 16:28 40.55799 22.95886 643 ft 152 kts 167°
2026-04-28 16:28 40.54774 22.96209 457 ft 151 kts 167°
2026-04-28 16:29 40.52688 22.96875 41 ft 154 kts 167°
2026-04-28 16:29 40.51147 22.97358 28 ft 57 kts 166°
2026-04-28 16:30 40.50966 22.97445 27 ft 16 kts 127°
2026-04-28 16:30 40.50968 22.97524 27 ft 9 kts 64°
2026-04-28 16:30 40.51010 22.97578 28 ft 9 kts 19°
2026-04-28 16:30 40.51067 22.97567 28 ft 8 kts 346°
2026-04-28 16:31 40.51123 22.97549 28 ft 8 kts 346°
2026-04-28 16:31 40.51185 22.97529 28 ft 11 kts 346°
2026-04-28 16:31 40.51281 22.97499 28 ft 17 kts 346°
2026-04-28 16:31 40.51412 22.97457 28 ft 21 kts 346°
2026-04-28 16:32 40.51554 22.97412 28 ft 21 kts 346°
2026-04-28 16:32 40.51824 22.97326 27 ft 19 kts 346°
2026-04-28 16:32 40.51952 22.97285 29 ft 19 kts 347°
2026-04-28 16:33 40.52062 22.97252 27 ft 13 kts 352°
2026-04-28 16:33 40.52104 22.97277 27 ft 7 kts 63°
2026-04-28 16:33 40.52090 22.97381 27 ft 11 kts 104°
2026-04-28 16:33 40.52067 22.97498 27 ft 15 kts 104°
2026-04-28 16:34 40.52041 22.97632 27 ft 15 kts 104°
2026-04-28 16:34 40.52042 22.97737 28 ft 11 kts 45°
2026-04-28 16:34 40.52105 22.97709 28 ft 11 kts 315°
2026-04-28 16:34 40.52161 22.97650 28 ft 10 kts 326°
2026-04-28 16:35 40.52216 22.97595 28 ft 10 kts 315°
2026-04-28 16:35 40.52265 22.97531 28 ft 10 kts 315°
2026-04-28 16:35 40.52310 22.97473 28 ft 3 kts 315°
2026-04-28 16:35 40.52335 22.97454 27 ft 7 kts 358°
2026-04-28 16:36 40.52363 22.97484 28 ft 2 kts 44°
2026-04-28 16:36 40.52371 22.97494 27 ft 0 kts 44°
2026-04-28 16:36 40.52373 22.97496 28 ft 0 kts 44°